Location: Big Prairie
(40.6673°N, 82.0952°W)
Time: 18:46:09
(UTC+00:00)

USA 276 - Pass Details

Date: 04 July 2022
Orbit: 366 x 369 km, 50.0° (Epoch: 12 July)

Event Time Altitude Azimuth Distance (km) Brightness Sun altitude
Rises 02:25:28 0° 279° (W) 2,204 6.8 -13.0°
Reaches altitude 10° 02:27:55 10° 299° (WNW) 1,357 6.1 -13.3°
Maximum altitude 02:30:08 18° 346° (NNW) 976 5.0 -13.6°
Drops below altitude 10° 02:32:22 10° 33° (NNE) 1,360 5.0 -13.9°
Sets 02:34:49 0° 53° (NE) 2,210 5.9 -14.2°
